Location: Unspecified
(0.0000°N, 0.0000°E)
Time: 15:55:29
(UTC+00:00)

Vanguard 1 Rocket - Pass Details

Date: 22 January 2020
Orbit: 650 x 4226 km, 34.3° (Epoch: 24 February)

Event Time Altitude Azimuth Distance (km) Brightness Sun altitude
Rises 18:24:08 0° 304° (NW) 7,993 12.8 -3.0°
Reaches altitude 10° 18:29:16 10° 304° (NW) 7,196 12.5 -4.2°
Maximum altitude 18:55:53 79° 220° (SW) 3,997 10.7 -10.4°
Drops below altitude 10° 19:15:29 10° 133° (SE) 5,581 11.1 -15.0°
Sets 19:18:53 0° 131° (SE) 6,222 11.4 -15.8°
